ANA356 RJCC-RJFK

Flight info

Callsign ANA356
Flight time 2h 32m
Altitude 34000
Route DALBI Y120 TAPPI Y12 ARIKA Y14 GOLDO/N0465F360 Y381 KMC Y382 WAKIT Y282 POPPY V53 SUC Y757 SPICA
Aircraft B738/M-SDE2E3FGHIRWXY/LB1

Departure

Time 2026-04-21 13:19
Airport New Chitose Airport (RJCC)

Arrival

Time 2026-04-21 15:51
Airport Kagoshima Airport (RJFK)
Time Latitude Longitude Altitude Speed Heading
2026-04-21 12:59 42.78675 141.68254 88 ft 0 kts 284°
2026-04-21 13:12 42.78672 141.68266 89 ft 2 kts 282°
2026-04-21 13:12 42.78669 141.68288 87 ft 2 kts 284°
2026-04-21 13:12 42.78665 141.68310 90 ft 2 kts 284°
2026-04-21 13:12 42.78661 141.68332 89 ft 2 kts 284°
2026-04-21 13:13 42.78656 141.68353 87 ft 2 kts 298°
2026-04-21 13:13 42.78646 141.68372 88 ft 2 kts 317°
2026-04-21 13:13 42.78633 141.68384 90 ft 2 kts 345°
2026-04-21 13:13 42.78619 141.68386 90 ft 1 kts 11°
2026-04-21 13:14 42.78616 141.68385 90 ft 0 kts 14°
2026-04-21 13:15 42.78623 141.68388 91 ft 2 kts 15°
2026-04-21 13:15 42.78655 141.68400 91 ft 8 kts 15°
2026-04-21 13:16 42.78718 141.68412 90 ft 9 kts
2026-04-21 13:16 42.78782 141.68411 88 ft 9 kts 354°
2026-04-21 13:16 42.78844 141.68403 89 ft 9 kts
2026-04-21 13:16 42.78892 141.68448 89 ft 9 kts 61°
2026-04-21 13:17 42.78914 141.68524 92 ft 8 kts 70°
2026-04-21 13:17 42.78937 141.68596 89 ft 8 kts 65°
2026-04-21 13:17 42.78945 141.68670 89 ft 8 kts 101°
2026-04-21 13:17 42.78913 141.68729 91 ft 8 kts 139°
2026-04-21 13:18 42.78873 141.68775 91 ft 7 kts 138°
2026-04-21 13:18 42.78825 141.68813 90 ft 9 kts 168°
2026-04-21 13:18 42.78548 141.68864 89 ft 82 kts 173°
2026-04-21 13:18 42.77725 141.69018 97 ft 153 kts 171°
2026-04-21 13:19 42.76595 141.69235 793 ft 164 kts 171°
2026-04-21 13:19 42.75492 141.69468 1950 ft 161 kts 177°
2026-04-21 13:19 42.74315 141.69682 2525 ft 184 kts 180°
2026-04-21 13:19 42.72936 141.69917 2798 ft 213 kts 180°
2026-04-21 13:20 42.71920 141.70086 2940 ft 228 kts 184°
2026-04-21 13:20 42.70025 141.69129 3464 ft 227 kts 233°
2026-04-21 13:20 42.69100 141.67360 4155 ft 232 kts 240°
2026-04-21 13:20 42.68193 141.65534 5065 ft 234 kts 241°
2026-04-21 13:21 42.67278 141.63703 5966 ft 236 kts 241°
2026-04-21 13:21 42.66345 141.61850 6821 ft 239 kts 242°
2026-04-21 13:21 42.65397 141.59982 7671 ft 241 kts 242°
2026-04-21 13:21 42.64438 141.58106 8531 ft 243 kts 242°
2026-04-21 13:22 42.63465 141.56208 9375 ft 246 kts 243°
2026-04-21 13:22 42.62489 141.54314 10129 ft 251 kts 243°
2026-04-21 13:22 42.61446 141.52279 10360 ft 275 kts 242°
2026-04-21 13:22 42.60304 141.50054 10557 ft 298 kts 242°
2026-04-21 13:23 42.59080 141.47688 11008 ft 311 kts 242°
2026-04-21 13:23 42.57823 141.45282 11758 ft 314 kts 242°
2026-04-21 13:23 42.56553 141.42862 12614 ft 314 kts 242°
2026-04-21 13:23 42.55283 141.40442 13433 ft 316 kts 242°
2026-04-21 13:24 42.54005 141.38006 14152 ft 318 kts 242°
2026-04-21 13:24 42.52733 141.35581 14834 ft 320 kts 243°
2026-04-21 13:24 42.51438 141.33112 15541 ft 322 kts 243°
2026-04-21 13:24 42.50131 141.30623 16245 ft 324 kts 243°
2026-04-21 13:25 42.48818 141.28123 16949 ft 326 kts 243°
2026-04-21 13:25 42.47499 141.25612 17645 ft 328 kts 243°
2026-04-21 13:25 42.46169 141.23082 18293 ft 331 kts 243°
2026-04-21 13:25 42.44827 141.20532 18844 ft 333 kts 243°
2026-04-21 13:26 42.43475 141.17965 19395 ft 336 kts 244°
2026-04-21 13:26 42.42127 141.15407 19944 ft 339 kts 244°
2026-04-21 13:26 42.40752 141.12801 20499 ft 341 kts 244°
2026-04-21 13:26 42.39362 141.10171 21037 ft 344 kts 244°
2026-04-21 13:27 42.38439 141.08424 21400 ft 345 kts 244°
2026-04-21 13:27 42.37145 141.05978 21888 ft 348 kts 244°
2026-04-21 13:27 42.35732 141.03307 22389 ft 350 kts 244°
2026-04-21 13:27 42.34306 141.00615 22873 ft 353 kts 244°
2026-04-21 13:28 42.32867 140.97901 23354 ft 356 kts 244°
2026-04-21 13:28 42.31417 140.95171 23784 ft 357 kts 244°
2026-04-21 13:28 42.29964 140.92437 24170 ft 360 kts 244°
2026-04-21 13:28 42.28498 140.89680 24539 ft 362 kts 244°
2026-04-21 13:29 42.27020 140.86904 24932 ft 364 kts 244°
2026-04-21 13:29 42.25538 140.84122 25311 ft 366 kts 244°
2026-04-21 13:29 42.23559 140.80412 25797 ft 369 kts 244°
2026-04-21 13:29 42.22564 140.78548 26031 ft 370 kts 244°
2026-04-21 13:30 42.21036 140.75687 26389 ft 372 kts 244°
2026-04-21 13:30 42.19535 140.72882 26737 ft 374 kts 244°
2026-04-21 13:30 42.18009 140.70030 27082 ft 376 kts 244°
2026-04-21 13:30 42.16474 140.67165 27408 ft 378 kts 243°
2026-04-21 13:31 42.14927 140.64278 27734 ft 380 kts 243°
2026-04-21 13:31 42.13374 140.61384 28047 ft 382 kts 243°
2026-04-21 13:31 42.11813 140.58479 28359 ft 384 kts 243°
2026-04-21 13:31 42.10170 140.55610 28636 ft 394 kts 237°
2026-04-21 13:32 42.08068 140.53128 28965 ft 409 kts 227°
2026-04-21 13:32 42.05665 140.51028 29464 ft 417 kts 221°
2026-04-21 13:32 42.02967 140.49419 29958 ft 433 kts 210°
2026-04-21 13:32 42.00059 140.48279 30362 ft 435 kts 208°
2026-04-21 13:33 41.97128 140.47227 30679 ft 436 kts 208°
2026-04-21 13:33 41.94193 140.46193 31005 ft 435 kts 208°
2026-04-21 13:33 41.91273 140.45155 31376 ft 432 kts 209°
2026-04-21 13:33 41.88417 140.44122 31755 ft 429 kts 209°
2026-04-21 13:34 41.85548 140.43068 32093 ft 427 kts 210°
2026-04-21 13:34 41.82684 140.42005 32430 ft 426 kts 210°
2026-04-21 13:34 41.79840 140.40945 32750 ft 424 kts 210°
2026-04-21 13:34 41.76997 140.39885 33087 ft 423 kts 210°
2026-04-21 13:35 41.74171 140.38833 33404 ft 421 kts 210°
2026-04-21 13:35 41.71345 140.37782 33725 ft 420 kts 211°
2026-04-21 13:35 41.65682 140.35675 33815 ft 423 kts 211°
2026-04-21 13:36 41.60074 140.33607 33803 ft 417 kts 211°
2026-04-21 13:36 41.54500 140.31550 33832 ft 414 kts 211°
2026-04-21 13:37 41.48945 140.29503 33818 ft 413 kts 211°
2026-04-21 13:37 41.43397 140.27462 33816 ft 412 kts 212°
2026-04-21 13:38 41.37872 140.25431 33822 ft 412 kts 212°
2026-04-21 13:38 41.32337 140.23401 33824 ft 412 kts 212°
2026-04-21 13:39 41.26797 140.21372 33831 ft 413 kts 212°
2026-04-21 13:39 41.21238 140.19340 33838 ft 414 kts 212°
2026-04-21 13:40 41.15675 140.17311 33848 ft 415 kts 213°
2026-04-21 13:40 41.10081 140.15305 33848 ft 418 kts 212°
2026-04-21 13:41 41.04475 140.13372 33849 ft 419 kts 212°
2026-04-21 13:41 40.98832 140.11435 33846 ft 419 kts 213°
2026-04-21 13:42 40.93187 140.09492 33849 ft 419 kts 213°
2026-04-21 13:42 40.87543 140.07548 33852 ft 419 kts 213°
2026-04-21 13:43 40.81898 140.05606 33855 ft 419 kts 214°
2026-04-21 13:43 40.76252 140.03666 33873 ft 419 kts 214°
2026-04-21 13:44 40.70603 140.01728 33884 ft 420 kts 214°
2026-04-21 13:44 40.64972 139.99798 33878 ft 421 kts 214°
2026-04-21 13:45 40.59294 139.97859 33885 ft 422 kts 214°
2026-04-21 13:45 40.53609 139.95920 33892 ft 422 kts 215°
2026-04-21 13:46 40.47916 139.93981 33879 ft 423 kts 215°
2026-04-21 13:46 40.42489 139.91628 33899 ft 389 kts 227°
2026-04-21 13:47 40.37718 139.88365 33901 ft 386 kts 228°
2026-04-21 13:47 40.32949 139.85102 33900 ft 387 kts 228°
2026-04-21 13:48 40.28155 139.81862 33901 ft 388 kts 227°
2026-04-21 13:48 40.23380 139.78654 33903 ft 389 kts 227°
2026-04-21 13:49 40.18557 139.75421 33906 ft 390 kts 227°
2026-04-21 13:49 40.13720 139.72184 33912 ft 390 kts 227°
2026-04-21 13:50 40.08873 139.68944 33913 ft 391 kts 227°
2026-04-21 13:50 40.04023 139.65713 33912 ft 392 kts 227°
2026-04-21 13:51 39.99132 139.62521 33912 ft 393 kts 227°
2026-04-21 13:51 39.94230 139.59345 33912 ft 393 kts 227°
2026-04-21 13:52 39.89338 139.56178 33920 ft 392 kts 227°
2026-04-21 13:52 39.84452 139.53014 33913 ft 392 kts 227°
2026-04-21 13:53 39.79574 139.49857 33928 ft 391 kts 227°
2026-04-21 13:53 39.74723 139.46721 33932 ft 391 kts 227°
2026-04-21 13:54 39.69846 139.43573 33936 ft 391 kts 227°
2026-04-21 13:54 39.64967 139.40429 33939 ft 391 kts 226°
2026-04-21 13:55 39.60093 139.37294 33944 ft 391 kts 226°
2026-04-21 13:55 39.55246 139.34181 33938 ft 391 kts 226°
2026-04-21 13:56 39.50372 139.31055 33941 ft 391 kts 226°
2026-04-21 13:56 39.45495 139.27933 33944 ft 391 kts 226°
2026-04-21 13:57 39.40622 139.24818 33948 ft 391 kts 226°
2026-04-21 13:57 39.35752 139.21710 33949 ft 390 kts 226°
2026-04-21 13:58 39.30873 139.18601 33955 ft 390 kts 226°
2026-04-21 13:58 39.26005 139.15504 33962 ft 390 kts 226°
2026-04-21 13:59 39.21173 139.12435 33966 ft 389 kts 225°
2026-04-21 13:59 39.16308 139.09350 33973 ft 389 kts 225°
2026-04-21 14:00 39.11447 139.06271 33973 ft 389 kts 225°
2026-04-21 14:00 39.06594 139.03204 33975 ft 388 kts 225°
2026-04-21 14:01 39.01781 139.00165 33971 ft 387 kts 225°
2026-04-21 14:01 38.96949 138.97120 33973 ft 386 kts 224°
2026-04-21 14:02 38.92129 138.94087 33980 ft 385 kts 225°
2026-04-21 14:03 38.84956 138.89579 33991 ft 384 kts 224°
2026-04-21 14:03 38.80154 138.86568 33992 ft 384 kts 224°
2026-04-21 14:04 38.75379 138.83578 33989 ft 384 kts 224°
2026-04-21 14:04 38.70581 138.80577 33994 ft 384 kts 224°
2026-04-21 14:05 38.65783 138.77582 34003 ft 384 kts 223°
2026-04-21 14:05 38.60983 138.74589 34001 ft 384 kts 223°
2026-04-21 14:06 38.56170 138.71593 34005 ft 385 kts 223°
2026-04-21 14:06 38.51344 138.68594 34007 ft 386 kts 222°
2026-04-21 14:07 38.46504 138.65591 34012 ft 387 kts 222°
2026-04-21 14:07 38.41688 138.62605 34020 ft 388 kts 221°
2026-04-21 14:08 38.36821 138.59594 34020 ft 390 kts 221°
2026-04-21 14:08 38.31924 138.56569 34030 ft 392 kts 221°
2026-04-21 14:09 38.27003 138.53533 34037 ft 393 kts 221°
2026-04-21 14:09 38.22058 138.50489 34038 ft 395 kts 221°
2026-04-21 14:10 38.17098 138.47439 34035 ft 396 kts 221°
2026-04-21 14:10 38.12122 138.44384 34039 ft 398 kts 220°
2026-04-21 14:11 38.07278 138.41190 34045 ft 385 kts 227°
2026-04-21 14:11 38.03262 138.36951 34059 ft 371 kts 237°
2026-04-21 14:12 37.99570 138.32331 34056 ft 374 kts 236°
2026-04-21 14:12 37.95842 138.27698 34061 ft 376 kts 236°
2026-04-21 14:13 37.92091 138.23062 34053 ft 375 kts 236°
2026-04-21 14:13 37.88379 138.18486 34055 ft 374 kts 236°
2026-04-21 14:14 37.84658 138.13907 34058 ft 372 kts 236°
2026-04-21 14:14 37.81555 138.10091 34062 ft 370 kts 236°
2026-04-21 14:15 37.77886 138.05585 34059 ft 368 kts 236°
2026-04-21 14:15 37.74213 138.01080 34061 ft 367 kts 236°
2026-04-21 14:16 37.70554 137.96597 34064 ft 366 kts 236°
2026-04-21 14:16 37.66900 137.92128 34066 ft 365 kts 236°
2026-04-21 14:17 37.63248 137.87667 34063 ft 365 kts 236°
2026-04-21 14:17 37.59614 137.83234 34064 ft 366 kts 236°
2026-04-21 14:18 37.55948 137.78769 34068 ft 367 kts 236°
2026-04-21 14:18 37.52267 137.74292 34074 ft 368 kts 236°
2026-04-21 14:19 37.48571 137.69803 34071 ft 369 kts 236°
2026-04-21 14:19 37.44862 137.65306 34079 ft 371 kts 236°
2026-04-21 14:20 37.41139 137.60799 34072 ft 372 kts 236°
2026-04-21 14:20 37.37427 137.56312 34081 ft 373 kts 236°
2026-04-21 14:21 37.33655 137.51761 34089 ft 374 kts 236°
2026-04-21 14:21 37.29927 137.47268 34086 ft 374 kts 235°
2026-04-21 14:22 37.26162 137.42736 34086 ft 374 kts 236°
2026-04-21 14:22 37.22399 137.38214 34083 ft 374 kts 235°
2026-04-21 14:23 37.18635 137.33698 34083 ft 374 kts 235°
2026-04-21 14:23 37.14897 137.29218 34082 ft 374 kts 235°
2026-04-21 14:24 37.11133 137.24714 34084 ft 374 kts 235°
2026-04-21 14:24 37.07370 137.20216 34084 ft 374 kts 235°
2026-04-21 14:25 37.03599 137.15716 34091 ft 374 kts 235°
2026-04-21 14:25 36.99825 137.11219 34099 ft 375 kts 235°
2026-04-21 14:26 36.96068 137.06749 34103 ft 375 kts 235°
2026-04-21 14:26 36.92277 137.02244 34105 ft 376 kts 235°
2026-04-21 14:27 36.88478 136.97735 34109 ft 377 kts 234°
2026-04-21 14:27 36.84670 136.93223 34099 ft 378 kts 234°
2026-04-21 14:28 36.80854 136.88710 34116 ft 379 kts 234°
2026-04-21 14:28 36.77016 136.84185 34111 ft 379 kts 234°
2026-04-21 14:29 36.73207 136.79700 34123 ft 379 kts 234°
2026-04-21 14:29 36.69337 136.75146 34112 ft 381 kts 234°
2026-04-21 14:30 36.65507 136.70646 34110 ft 381 kts 234°
2026-04-21 14:30 36.61648 136.66120 34107 ft 381 kts 233°
2026-04-21 14:31 36.57779 136.61587 34105 ft 382 kts 233°
2026-04-21 14:31 36.53908 136.57059 34109 ft 382 kts 233°
2026-04-21 14:32 36.50036 136.52534 34107 ft 382 kts 233°
2026-04-21 14:32 36.46186 136.48042 34100 ft 382 kts 233°
2026-04-21 14:33 36.42309 136.43525 34096 ft 382 kts 233°
2026-04-21 14:33 36.38416 136.39023 34095 ft 383 kts 232°
2026-04-21 14:34 36.34428 136.34602 34102 ft 384 kts 232°
2026-04-21 14:34 36.30426 136.30196 34099 ft 384 kts 232°
2026-04-21 14:35 36.26432 136.25786 34103 ft 385 kts 232°
2026-04-21 14:35 36.22431 136.21365 34112 ft 385 kts 232°
2026-04-21 14:36 36.18454 136.16975 34114 ft 385 kts 231°
2026-04-21 14:36 36.14424 136.12535 34122 ft 386 kts 231°
2026-04-21 14:37 36.10436 136.08152 34134 ft 386 kts 231°
2026-04-21 14:37 36.06408 136.03730 34123 ft 387 kts 231°
2026-04-21 14:38 36.02370 135.99301 34114 ft 389 kts 231°
2026-04-21 14:38 35.98326 135.94873 34128 ft 389 kts 231°
2026-04-21 14:39 35.94277 135.90445 34117 ft 388 kts 231°
2026-04-21 14:39 35.90229 135.86025 34119 ft 388 kts 231°
2026-04-21 14:40 35.86198 135.81630 34121 ft 388 kts 231°
2026-04-21 14:40 35.82140 135.77210 34115 ft 389 kts 231°
2026-04-21 14:41 35.78073 135.72786 34122 ft 389 kts 230°
2026-04-21 14:41 35.74033 135.68399 34120 ft 390 kts 230°
2026-04-21 14:42 35.69958 135.63978 34123 ft 391 kts 230°
2026-04-21 14:42 35.65878 135.59559 34122 ft 391 kts 230°
2026-04-21 14:43 35.61779 135.55129 34122 ft 392 kts 230°
2026-04-21 14:43 35.57676 135.50703 34119 ft 392 kts 230°
2026-04-21 14:44 35.53569 135.46277 34111 ft 392 kts 230°
2026-04-21 14:44 35.49465 135.41862 34116 ft 392 kts 230°
2026-04-21 14:45 35.45354 135.37442 34119 ft 393 kts 230°
2026-04-21 14:45 35.41262 135.33048 34121 ft 394 kts 229°
2026-04-21 14:46 35.37131 135.28621 34135 ft 394 kts 229°
2026-04-21 14:46 35.32995 135.24194 34128 ft 395 kts 229°
2026-04-21 14:47 35.28856 135.19770 34125 ft 395 kts 229°
2026-04-21 14:47 35.24711 135.15345 34109 ft 396 kts 229°
2026-04-21 14:48 35.20579 135.10941 34122 ft 396 kts 229°
2026-04-21 14:48 35.16427 135.06519 34109 ft 396 kts 229°
2026-04-21 14:49 35.12275 135.02107 34107 ft 395 kts 229°
2026-04-21 14:49 35.08124 134.97699 34101 ft 396 kts 229°
2026-04-21 14:50 35.04642 134.94008 34106 ft 396 kts 229°
2026-04-21 14:50 34.99921 134.88773 34104 ft 393 kts 231°
2026-04-21 14:51 34.96001 134.84130 34097 ft 393 kts 231°
2026-04-21 14:51 34.92060 134.79495 34097 ft 394 kts 231°
2026-04-21 14:52 34.88089 134.74870 34114 ft 395 kts 231°
2026-04-21 14:52 34.84109 134.70247 34109 ft 396 kts 231°
2026-04-21 14:53 34.80112 134.65614 34109 ft 397 kts 230°
2026-04-21 14:53 34.75940 134.61224 34117 ft 400 kts 227°
2026-04-21 14:54 34.71610 134.56935 34108 ft 401 kts 227°
2026-04-21 14:54 34.67294 134.52638 34121 ft 401 kts 227°
2026-04-21 14:55 34.62978 134.48323 34107 ft 401 kts 227°
2026-04-21 14:55 34.58662 134.44013 34102 ft 402 kts 227°
2026-04-21 14:56 34.54368 134.39733 34100 ft 402 kts 227°
2026-04-21 14:56 34.50028 134.35412 34104 ft 402 kts 227°
2026-04-21 14:57 34.45724 134.31130 34109 ft 403 kts 227°
2026-04-21 14:57 34.41444 134.26978 34105 ft 406 kts 224°
2026-04-21 14:58 34.36851 134.22958 34102 ft 407 kts 223°
2026-04-21 14:58 34.32245 134.18966 34102 ft 408 kts 224°
2026-04-21 14:59 34.27642 134.14941 34093 ft 408 kts 224°
2026-04-21 14:59 34.23031 134.10909 34094 ft 409 kts 224°
2026-04-21 15:00 34.18444 134.06905 34106 ft 409 kts 223°
2026-04-21 15:00 34.13829 134.02881 34099 ft 409 kts 223°
2026-04-21 15:01 34.09325 133.98699 34090 ft 407 kts 227°
2026-04-21 15:01 34.05773 133.94986 34099 ft 406 kts 228°
2026-04-21 15:02 34.00832 133.89765 34100 ft 405 kts 228°
2026-04-21 15:02 33.97259 133.86027 34107 ft 406 kts 227°
2026-04-21 15:03 33.92971 133.81574 34121 ft 407 kts 227°
2026-04-21 15:03 33.88691 133.77145 34115 ft 409 kts 227°
2026-04-21 15:04 33.84366 133.72681 34102 ft 409 kts 227°
2026-04-21 15:04 33.80041 133.68222 34096 ft 409 kts 227°
2026-04-21 15:05 33.75721 133.63774 34086 ft 408 kts 227°
2026-04-21 15:05 33.69257 133.57130 34083 ft 406 kts 227°
2026-04-21 15:06 33.64967 133.52727 34079 ft 405 kts 227°
2026-04-21 15:06 33.60690 133.48345 34091 ft 404 kts 227°
2026-04-21 15:07 33.56435 133.43988 34085 ft 404 kts 227°
2026-04-21 15:07 33.52151 133.39609 34086 ft 404 kts 227°
2026-04-21 15:08 33.47869 133.35237 34081 ft 404 kts 226°
2026-04-21 15:08 33.43582 133.30867 34089 ft 404 kts 226°
2026-04-21 15:09 33.39312 133.26521 34097 ft 405 kts 226°
2026-04-21 15:09 33.35015 133.22152 34103 ft 406 kts 226°
2026-04-21 15:10 33.30704 133.17775 34105 ft 407 kts 226°
2026-04-21 15:10 33.26373 133.13383 34101 ft 408 kts 225°
2026-04-21 15:11 33.22033 133.08988 34097 ft 409 kts 225°
2026-04-21 15:11 33.17688 133.04595 34091 ft 409 kts 225°
2026-04-21 15:12 33.13330 133.00196 34086 ft 410 kts 225°
2026-04-21 15:12 33.08978 132.95807 34103 ft 410 kts 225°
2026-04-21 15:13 33.04635 132.91432 34091 ft 411 kts 225°
2026-04-21 15:13 33.00260 132.87033 34097 ft 412 kts 225°
2026-04-21 15:14 32.95874 132.82627 34090 ft 412 kts 225°
2026-04-21 15:14 32.91492 132.78232 34085 ft 412 kts 225°
2026-04-21 15:15 32.87110 132.73844 34096 ft 412 kts 225°
2026-04-21 15:15 32.82718 132.69449 34086 ft 412 kts 225°
2026-04-21 15:16 32.78324 132.65059 34087 ft 412 kts 225°
2026-04-21 15:16 32.73933 132.60678 34090 ft 412 kts 225°
2026-04-21 15:17 32.69568 132.56329 34091 ft 412 kts 225°
2026-04-21 15:17 32.65178 132.51960 34085 ft 412 kts 225°
2026-04-21 15:18 32.60783 132.47593 34088 ft 412 kts 225°
2026-04-21 15:18 32.56388 132.43230 33793 ft 416 kts 225°
2026-04-21 15:19 32.54161 132.41020 33210 ft 416 kts 225°
2026-04-21 15:19 32.51943 132.38823 32561 ft 415 kts 225°
2026-04-21 15:19 32.49740 132.36644 32072 ft 410 kts 225°
2026-04-21 15:19 32.47559 132.34487 31578 ft 406 kts 225°
2026-04-21 15:20 32.45400 132.32352 31102 ft 402 kts 225°
2026-04-21 15:20 32.43262 132.30238 30633 ft 399 kts 225°
2026-04-21 15:20 32.41167 132.28168 30159 ft 396 kts 225°
2026-04-21 15:20 32.39063 132.26092 29612 ft 392 kts 225°
2026-04-21 15:21 32.37074 132.23924 29090 ft 385 kts 231°
2026-04-21 15:21 32.35364 132.21499 28342 ft 383 kts 239°
2026-04-21 15:21 32.33964 132.18844 27800 ft 378 kts 242°
2026-04-21 15:21 32.32610 132.16204 27298 ft 375 kts 241°
2026-04-21 15:22 32.31251 132.13565 26806 ft 372 kts 241°
2026-04-21 15:22 32.29908 132.10969 26354 ft 369 kts 241°
2026-04-21 15:22 32.28589 132.08427 25877 ft 366 kts 241°
2026-04-21 15:22 32.27259 132.05871 25415 ft 363 kts 241°
2026-04-21 15:23 32.25942 132.03344 24969 ft 360 kts 241°
2026-04-21 15:23 32.24630 132.00831 24513 ft 358 kts 240°
2026-04-21 15:23 32.23325 131.98332 24062 ft 357 kts 240°
2026-04-21 15:23 32.22024 131.95842 23589 ft 355 kts 240°
2026-04-21 15:24 32.20733 131.93373 23081 ft 353 kts 240°
2026-04-21 15:24 32.19445 131.90910 22603 ft 350 kts 240°
2026-04-21 15:24 32.18172 131.88478 22141 ft 347 kts 240°
2026-04-21 15:24 32.16905 131.86061 21592 ft 346 kts 240°
2026-04-21 15:25 32.15635 131.83639 21030 ft 347 kts 240°
2026-04-21 15:25 32.14365 131.81220 20516 ft 346 kts 240°
2026-04-21 15:25 32.13103 131.78820 20074 ft 343 kts 240°
2026-04-21 15:25 32.11848 131.76433 19644 ft 341 kts 240°
2026-04-21 15:26 32.10606 131.74071 19200 ft 339 kts 240°
2026-04-21 15:26 32.09382 131.71744 18768 ft 337 kts 240°
2026-04-21 15:26 32.08149 131.69401 18344 ft 335 kts 240°
2026-04-21 15:26 32.06924 131.67075 17842 ft 333 kts 240°
2026-04-21 15:27 32.05705 131.64762 17389 ft 330 kts 240°
2026-04-21 15:27 32.04496 131.62469 16954 ft 327 kts 239°
2026-04-21 15:27 32.03299 131.60199 16518 ft 325 kts 239°
2026-04-21 15:27 32.02108 131.57943 16066 ft 323 kts 239°
2026-04-21 15:28 32.00926 131.55705 15640 ft 321 kts 239°
2026-04-21 15:28 31.99752 131.53483 15221 ft 319 kts 239°
2026-04-21 15:28 31.98583 131.51270 14805 ft 317 kts 239°
2026-04-21 15:28 31.97423 131.49076 14402 ft 314 kts 239°
2026-04-21 15:29 31.96271 131.46901 14014 ft 312 kts 239°
2026-04-21 15:29 31.95124 131.44737 13603 ft 309 kts 239°
2026-04-21 15:29 31.94001 131.42623 13118 ft 309 kts 239°
2026-04-21 15:29 31.92856 131.40480 12613 ft 309 kts 238°
2026-04-21 15:30 31.91711 131.38340 12146 ft 308 kts 238°
2026-04-21 15:30 31.90571 131.36210 11714 ft 307 kts 238°
2026-04-21 15:30 31.89444 131.34106 11542 ft 298 kts 238°
2026-04-21 15:30 31.88361 131.32083 11451 ft 286 kts 238°
2026-04-21 15:31 31.87318 131.30138 11347 ft 276 kts 238°
2026-04-21 15:31 31.86308 131.28252 11152 ft 270 kts 238°
2026-04-21 15:31 31.85314 131.26397 10933 ft 266 kts 238°
2026-04-21 15:31 31.84331 131.24563 10610 ft 266 kts 238°
2026-04-21 15:32 31.83341 131.22718 10272 ft 267 kts 238°
2026-04-21 15:32 31.82346 131.20864 9928 ft 268 kts 238°
2026-04-21 15:32 31.81349 131.19006 9599 ft 268 kts 238°
2026-04-21 15:32 31.80357 131.17159 9298 ft 267 kts 238°
2026-04-21 15:33 31.79367 131.15316 8989 ft 266 kts 238°
2026-04-21 15:33 31.78377 131.13475 8663 ft 266 kts 237°
2026-04-21 15:33 31.77388 131.11636 8346 ft 266 kts 237°
2026-04-21 15:33 31.76400 131.09802 8047 ft 266 kts 237°
2026-04-21 15:34 31.75596 131.08310 7792 ft 266 kts 237°
2026-04-21 15:34 31.74625 131.06503 7476 ft 265 kts 237°
2026-04-21 15:34 31.73642 131.04672 7195 ft 265 kts 237°
2026-04-21 15:34 31.72677 131.02874 7025 ft 259 kts 237°
2026-04-21 15:35 31.71732 131.01115 6939 ft 247 kts 237°
2026-04-21 15:35 31.70840 130.99452 6828 ft 234 kts 236°
2026-04-21 15:35 31.69984 130.97860 6549 ft 229 kts 236°
2026-04-21 15:35 31.69133 130.96279 6211 ft 226 kts 236°
2026-04-21 15:36 31.68327 130.94781 6110 ft 208 kts 236°
2026-04-21 15:36 31.67560 130.93358 5741 ft 206 kts 236°
2026-04-21 15:36 31.66858 130.91899 5321 ft 206 kts 250°
2026-04-21 15:36 31.66561 130.90275 4904 ft 207 kts 258°
2026-04-21 15:37 31.66272 130.88612 4460 ft 208 kts 257°
2026-04-21 15:37 31.65996 130.86959 4149 ft 202 kts 264°
2026-04-21 15:37 31.66221 130.85361 4018 ft 200 kts 290°
2026-04-21 15:37 31.66693 130.83845 3807 ft 196 kts 290°
2026-04-21 15:38 31.67146 130.82361 3581 ft 190 kts 290°
2026-04-21 15:38 31.67699 130.80983 3404 ft 183 kts 316°
2026-04-21 15:38 31.68716 130.80130 3285 ft 187 kts 328°
2026-04-21 15:38 31.69757 130.79242 3055 ft 179 kts 326°
2026-04-21 15:39 31.70756 130.78466 2790 ft 166 kts 331°
2026-04-21 15:39 31.71735 130.77786 2576 ft 162 kts 333°
2026-04-21 15:39 31.72707 130.77126 2364 ft 162 kts 332°
2026-04-21 15:39 31.73685 130.76461 2148 ft 162 kts 332°
2026-04-21 15:40 31.74654 130.75802 1934 ft 161 kts 331°
2026-04-21 15:40 31.75619 130.75146 1715 ft 160 kts 331°
2026-04-21 15:40 31.76531 130.74526 1513 ft 159 kts 331°
2026-04-21 15:40 31.77481 130.73880 1292 ft 156 kts 331°
2026-04-21 15:41 31.78399 130.73249 1094 ft 154 kts 332°
2026-04-21 15:41 31.79328 130.72619 921 ft 153 kts 331°
2026-04-21 15:41 31.80170 130.72060 984 ft 127 kts 333°
2026-04-21 15:41 31.80955 130.71537 1409 ft 137 kts 332°
2026-04-21 15:42 31.81868 130.70950 1686 ft 167 kts 330°
2026-04-21 15:42 31.82631 130.69786 2029 ft 199 kts 281°
2026-04-21 15:42 31.82414 130.68174 2753 ft 208 kts 244°
2026-04-21 15:42 31.81677 130.66584 2998 ft 235 kts 232°
2026-04-21 15:43 31.80438 130.65292 3585 ft 242 kts 211°
2026-04-21 15:43 31.78969 130.64296 4358 ft 245 kts 207°
2026-04-21 15:43 31.77467 130.63343 4801 ft 243 kts 207°
2026-04-21 15:43 31.75971 130.62390 4971 ft 248 kts 207°
2026-04-21 15:44 31.74426 130.61387 4995 ft 261 kts 207°
2026-04-21 15:44 31.72757 130.60468 4970 ft 268 kts 192°
2026-04-21 15:44 31.70942 130.60486 4963 ft 256 kts 162°
2026-04-21 15:44 31.69456 130.61483 4879 ft 245 kts 136°
2026-04-21 15:45 31.68457 130.63106 4636 ft 254 kts 115°
2026-04-21 15:45 31.67845 130.65101 4407 ft 258 kts 107°
2026-04-21 15:45 31.67346 130.67079 4146 ft 252 kts 107°
2026-04-21 15:45 31.66858 130.69019 3882 ft 243 kts 106°
2026-04-21 15:46 31.66386 130.70887 3623 ft 235 kts 107°
2026-04-21 15:46 31.65918 130.72693 3371 ft 226 kts 107°
2026-04-21 15:46 31.65500 130.74415 3144 ft 213 kts 98°
2026-04-21 15:46 31.65643 130.76086 2897 ft 201 kts 73°
2026-04-21 15:47 31.66221 130.77513 2820 ft 190 kts 62°
2026-04-21 15:47 31.66900 130.78831 2791 ft 188 kts 54°
2026-04-21 15:47 31.67971 130.79666 2777 ft 190 kts 15°
2026-04-21 15:47 31.69257 130.79456 2789 ft 198 kts 334°
2026-04-21 15:48 31.70468 130.78628 2794 ft 202 kts 333°
2026-04-21 15:48 31.71682 130.77822 2560 ft 197 kts 332°
2026-04-21 15:48 31.72826 130.77046 2344 ft 182 kts 332°
2026-04-21 15:48 31.73852 130.76346 2105 ft 160 kts 332°
2026-04-21 15:49 31.74780 130.75716 1900 ft 153 kts 332°
2026-04-21 15:49 31.75684 130.75102 1698 ft 149 kts 331°
2026-04-21 15:49 31.76576 130.74494 1472 ft 149 kts 330°
2026-04-21 15:49 31.77438 130.73897 1287 ft 141 kts 331°
2026-04-21 15:50 31.78001 130.73514 1165 ft 142 kts 332°
2026-04-21 15:50 31.78870 130.72932 997 ft 142 kts 332°
2026-04-21 15:50 31.79676 130.72386 911 ft 119 kts 329°
2026-04-21 15:50 31.80265 130.71990 915 ft 73 kts 330°
2026-04-21 15:51 31.80507 130.71806 914 ft 16 kts 296°
2026-04-21 15:51 31.80490 130.71712 910 ft 0 kts 240°
2026-04-21 15:52 31.80490 130.71711 910 ft 2 kts 240°
2026-04-21 15:52 31.80438 130.71658 910 ft 14 kts 190°
2026-04-21 15:53 31.80349 130.71699 905 ft 14 kts 149°
2026-04-21 15:53 31.80268 130.71754 906 ft 13 kts 149°
2026-04-21 15:53 31.80229 130.71763 904 ft 3 kts 210°
2026-04-21 15:53 31.80192 130.71702 902 ft 8 kts 240°
2026-04-21 15:54 31.80172 130.71661 903 ft 1 kts 239°